Location: Lecco
(45.8566°N, 9.3977°E)
Time: 04:57:02
(UTC+02:00)

Transit 4A - Pass Details

Date: 20 August 2020
Orbit: 863 x 982 km, 66.8° (Epoch: 23 September)

Event Time Altitude Azimuth Distance (km) Brightness Sun altitude
Rises 10:46:32 0° 269° (W) 3,544 10.6 42.5°
Reaches altitude 10° 10:49:53 10° 288° (WNW) 2,628 9.9 42.9°
Maximum altitude 10:54:01 18° 331° (NNW) 2,118 9.6 43.5°
Drops below altitude 10° 10:58:14 10° 14° (NNE) 2,690 10.3 44.1°
Sets 11:01:44 0° 32° (NNE) 3,658 11.0 44.6°
